Theta_e
308 308 308 308 307 307 307 307 307 307 307 307 308 309 311 312 312 315 319 322 323 321 320 319 319 319 319 318 317 314 331 338 342 342 343 340 346 345 341 342 341 342 341 338 336
308 308 308 308 308 308 308 308 308 307 308 308 309 311 312 312 314 319 322 326 325 321 319 318 318 319 317 319 316 321 331 338 340 341 341 341 346 342 346 343 342 341 337 336 334
307 308 309 309 310 310 309 309 309 309 310 310 312 312 312 313 320 324 323 323 323 320 319 320 320 319 319 334 341 343 339 341 341 340 340 339 344 343 343 342 341 340 338 335 333
308 309 309 310 310 311 310 311 312 312 312 312 312 312 312 320 324 323 319 324 322 320 319 318 317 325 340 342 342 345 346 342 342 339 341 344 341 342 339 342 336 335 333 332 331
309 309 309 310 310 310 311 311 311 312 312 312 312 312 316 319 319 325 319 316 317 317 319 318 319 332 343 343 341 344 346 340 340 340 340 340 340 338 340 336 333 333 332 330 329
310 309 309 311 311 311 312 312 312 312 312 312 312 312 319 319 324 321 317 318 319 319 319 320 326 336 338 337 339 340 344 342 340 340 341 342 340 338 338 333 333 331 330 327 326
311 309 310 311 311 311 311 312 312 313 313 313 313 314 319 316 324 324 318 321 321 321 320 320 330 324 328 337 335 343 345 343 342 341 341 337 342 340 335 332 332 331 328 326 325
311 310 310 311 311 311 311 311 312 312 313 313 313 317 319 322 327 324 319 321 321 321 320 320 319 316 328 332 339 333 339 346 343 340 340 337 347 339 334 333 332 330 327 325 325
312 311 310 311 311 311 312 313 313 313 312 315 319 320 323 325 324 324 324 321 322 322 322 321 319 316 324 327 326 329 330 339 339 333 336 337 344 337 334 333 332 328 325 324 323
312 312 311 311 311 311 312 316 318 315 321 319 321 321 322 325 323 321 323 322 321 320 318 318 313 315 313 316 318 320 334 336 338 339 339 341 340 334 331 334 331 328 325 324 324
312 312 312 311 312 312 312 321 322 321 322 322 322 322 322 325 322 321 322 321 320 319 320 318 318 320 319 316 321 330 337 340 333 334 334 334 334 334 331 333 330 327 326 325 324
313 312 312 312 312 312 312 318 326 324 324 321 324 323 324 326 323 319 321 320 320 320 320 318 319 320 322 326 332 334 338 338 334 330 332 332 337 335 335 334 331 330 328 326 325
313 312 313 313 313 314 316 319 322 320 321 324 325 326 325 325 323 321 319 319 320 320 320 319 320 325 329 327 329 328 330 336 338 336 333 337 339 338 336 335 333 330 328 326 327
313 313 313 313 317 317 318 322 319 322 325 327 325 324 323 322 323 322 321 321 322 323 320 326 325 326 324 325 323 325 330 335 336 336 341 333 343 336 333 335 335 333 329 325 324
313 312 313 313 313 313 320 320 320 324 335 332 324 323 321 322 323 324 322 323 328 329 327 330 329 329 328 328 325 327 332 334 333 336 335 336 341 339 333 337 336 332 327 324 323
311 312 312 312 313 317 319 319 326 330 335 331 327 323 322 321 322 326 327 324 327 327 328 330 329 330 329 324 325 323 322 319 320 328 335 334 333 333 336 334 335 329 326 323 322
310 311 311 312 315 318 316 325 328 331 330 333 328 322 321 322 328 329 330 329 327 327 327 328 331 330 329 329 324 321 319 322 324 335 339 333 333 330 331 333 331 327 324 323 319
311 311 312 313 314 314 322 325 334 332 335 333 334 324 324 331 333 333 333 332 330 326 327 331 333 331 328 327 326 323 321 323 329 333 338 331 338 332 332 329 325 322 321 315 310
316 319 320 316 316 321 320 327 331 334 334 331 331 330 330 330 333 334 331 334 331 329 331 330 332 327 324 323 323 324 324 321 326 330 334 335 336 335 331 328 324 321 320 311 309
321 323 325 324 324 323 321 325 329 332 331 330 331 331 332 330 333 334 331 329 332 329 327 331 330 328 328 324 322 324 323 324 324 332 337 334 332 335 333 330 323 321 314 309 308
325 324 327 328 328 316 321 323 329 327 329 329 330 329 328 331 333 333 329 328 329 331 325 325 324 328 327 327 323 323 323 323 323 326 332 333 331 324 329 327 324 319 314 309 306
325 322 327 325 317 316 320 323 326 326 326 327 325 326 328 327 331 328 329 328 328 326 325 325 325 330 330 326 322 321 324 320 324 330 326 326 327 321 324 324 320 315 310 307 305
322 324 326 321 323 325 323 328 324 325 324 324 326 329 328 330 329 329 329 327 327 328 328 327 322 325 326 323 321 322 321 319 320 322 328 328 326 321 319 317 314 309 307 307 305
323 325 323 319 319 324 326 326 325 327 326 327 326 327 327 327 326 328 328 328 328 329 332 327 326 325 326 325 322 324 324 323 322 325 328 327 326 322 319 317 311 309 307 307 306
321 326 326 323 322 322 324 326 328 328 328 325 325 326 327 327 325 328 330 328 328 330 327 326 329 323 323 324 322 323 324 324 327 326 326 328 326 322 318 313 310 308 309 308 308
326 325 326 327 319 323 323 329 330 330 328 328 326 325 322 324 324 324 325 331 332 329 327 322 328 326 326 324 325 327 324 323 322 320 321 321 322 316 311 310 310 310 310 309 308
324 326 324 326 328 325 326 329 330 328 327 327 326 326 324 324 323 321 318 323 325 327 326 326 327 329 329 329 327 329 328 323 322 320 319 320 319 315 314 312 310 310 309 310 309
Wind_Speed
12 12 11 11 11 11 12 12 12 13 14 15 15 16 18 22 24 10 5 3 1 2 1 2 4 3 4 3 4 4 5 4 6 4 4 4 4 8 12 15 16 10 13 12 14
12 11 10 10 11 11 12 13 12 12 13 14 14 16 18 24 18 7 4 6 4 2 2 0 3 3 2 2 1 4 5 9 8 3 6 7 6 2 7 13 10 13 16 18 20
11 9 9 9 10 10 11 11 11 11 12 13 14 16 18 18 3 5 5 8 7 5 3 5 3 4 3 4 4 3 6 9 10 5 14 8 16 5 6 11 9 7 12 17 19
12 9 9 10 10 10 11 10 10 11 11 13 14 16 17 4 2 1 3 4 6 5 5 4 5 5 5 6 2 7 7 4 6 9 8 7 6 10 17 10 15 14 13 14 15
12 9 9 9 9 10 11 10 10 10 11 11 12 14 6 3 7 4 1 3 5 3 1 2 4 4 6 4 5 6 3 7 15 19 14 19 17 13 15 14 16 15 15 12 10
11 9 8 8 8 9 10 9 9 9 9 9 9 11 3 3 6 6 3 4 4 3 3 1 3 8 7 3 3 5 12 12 11 16 10 17 10 5 7 10 13 12 11 9 10
10 8 7 8 9 10 10 9 8 8 8 8 7 7 1 10 3 6 5 4 6 6 1 5 16 4 8 7 5 17 14 13 9 6 9 17 12 9 9 6 9 10 12 8 8
9 8 7 9 9 9 10 8 8 8 7 7 7 3 6 3 9 7 8 9 6 8 6 3 9 6 5 14 6 5 4 5 5 6 6 5 8 6 5 5 6 5 8 8 7
8 8 7 8 9 8 9 7 7 8 7 6 3 1 9 10 5 11 13 6 11 7 15 2 3 4 5 7 5 1 4 11 4 6 5 3 12 7 1 2 5 4 4 6 2
8 7 6 7 8 8 9 8 7 6 2 1 2 3 6 4 5 4 7 13 2 5 8 6 5 3 3 3 4 4 6 7 7 5 11 13 13 3 1 6 6 3 4 4 4
8 6 6 7 7 8 8 4 4 3 3 6 5 4 5 7 5 6 7 3 1 5 1 4 6 5 7 7 4 8 16 14 7 10 13 14 7 3 0 7 5 5 3 3 2
8 5 5 6 8 10 7 2 2 0 7 10 6 5 12 5 2 6 3 2 2 4 3 6 5 1 2 6 7 13 14 11 11 8 13 7 8 6 5 4 4 3 4 4 2
7 4 6 7 10 7 4 5 1 12 2 7 5 4 4 10 6 6 8 2 5 4 5 6 4 4 9 3 8 2 7 8 11 9 11 13 5 3 2 1 4 4 4 4 4
5 4 6 8 4 6 8 5 22 1 5 6 3 5 3 4 4 5 14 6 2 2 6 5 6 9 9 5 5 4 10 21 26 11 6 2 3 3 2 2 6 5 3 5 2
4 4 7 6 8 4 6 21 10 3 3 3 5 1 2 5 3 3 4 6 3 4 8 1 1 6 9 3 2 2 23 23 14 12 7 1 3 3 2 1 5 4 5 6 6
4 5 7 5 9 12 15 18 3 5 2 6 5 2 3 1 3 4 6 6 2 7 5 1 0 3 4 4 4 4 8 6 5 4 4 3 4 4 5 7 7 3 4 5 4
3 6 6 6 3 7 21 4 5 3 3 4 3 2 2 6 8 6 6 8 3 4 6 6 4 3 3 4 5 6 6 3 4 5 2 1 3 5 3 7 6 8 7 6 2
4 5 6 12 11 14 7 5 2 2 6 5 3 2 4 3 7 8 4 7 8 6 3 3 7 6 6 2 4 4 5 5 3 4 3 4 3 3 1 6 7 6 6 7 6
2 2 4 4 3 1 5 4 5 4 5 5 2 7 6 6 6 5 5 3 5 5 5 3 4 5 9 4 2 1 4 2 6 3 4 1 2 2 5 5 5 5 5 7 6
1 2 4 2 5 5 5 4 4 5 1 6 4 4 4 6 4 4 5 5 5 6 1 2 2 3 4 7 9 6 3 3 3 4 3 2 3 3 6 7 7 6 6 5 5
0 3 5 6 3 5 2 5 4 6 3 5 5 4 3 3 5 4 5 4 6 5 9 2 3 6 4 5 1 5 4 5 5 3 4 3 4 5 8 9 10 8 8 7 6
3 3 7 4 3 1 1 3 3 4 8 6 5 5 5 7 6 4 3 3 6 3 4 4 4 2 3 7 4 4 2 3 4 0 2 3 4 4 9 10 8 6 7 6 6
2 2 5 2 1 2 4 1 6 6 6 6 4 6 5 4 5 3 2 5 8 6 2 1 3 3 6 5 7 6 4 5 6 3 1 3 4 5 5 7 4 8 7 6 6
3 3 4 4 1 3 3 2 5 9 7 7 4 5 8 10 8 3 3 5 6 4 4 7 3 4 4 2 2 6 7 5 5 4 2 3 2 1 4 5 6 7 7 6 5
4 1 2 2 4 4 3 4 4 5 5 10 7 6 5 4 5 4 4 2 5 7 4 4 6 6 6 13 15 12 10 9 7 4 3 3 4 3 3 5 5 6 5 5 4
3 3 4 2 3 5 7 7 6 3 5 6 8 7 8 5 2 2 2 2 2 4 4 4 2 5 8 14 14 13 8 9 8 6 5 5 3 3 5 8 6 6 5 4 5
3 2 4 5 5 4 2 3 2 3 9 5 3 4 7 2 3 3 9 10 6 4 3 3 6 3 5 2 2 7 7 6 4 5 1 1 2 3 4 6 6 6 5 6 4
Wind_Direction
306 306 302 304 305 306 308 310 315 313 313 318 324 327 325 325 325 314 255 203 217 214 224 296 280 238 148 149 174 112 83 127 176 227 129 38 102 74 82 77 56 61 84 94 85
314 306 304 304 304 310 315 311 313 311 313 318 325 326 329 326 327 267 246 222 260 260 239 334 290 6 67 142 31 86 112 187 202 163 139 106 77 60 108 89 72 73 77 85 75
315 315 311 307 314 318 313 310 310 313 314 320 325 326 329 328 318 255 338 235 242 257 274 284 277 187 97 72 1 16 143 174 211 88 110 84 55 25 105 59 64 72 72 69 68
323 317 315 314 316 314 307 308 311 311 315 320 325 329 330 339 89 29 346 150 220 257 316 356 348 57 55 98 148 93 41 11 88 100 93 85 84 61 64 75 75 76 79 73 69
323 316 319 312 316 310 306 307 306 309 315 319 328 336 352 341 255 345 114 145 216 240 16 15 71 95 86 69 58 61 87 58 73 74 82 85 72 90 78 83 81 86 75 73 73
319 318 313 316 317 314 311 314 312 314 319 322 337 343 345 329 327 336 168 176 221 220 142 127 90 113 98 73 66 95 87 79 76 85 108 98 74 101 88 124 116 107 91 78 67
321 318 313 317 317 319 314 312 309 316 318 324 342 346 13 237 342 322 234 245 248 252 69 143 160 135 135 89 37 117 92 77 81 81 119 101 74 99 158 123 114 100 104 101 82
327 317 321 323 321 321 312 312 310 306 307 312 329 342 254 270 305 247 237 274 278 292 285 248 201 106 80 120 106 66 103 126 231 132 187 16 116 151 153 92 89 106 91 97 72
327 322 327 323 320 320 312 309 299 289 292 303 330 38 276 305 258 228 244 261 313 339 329 274 113 97 98 150 117 96 153 113 128 336 132 157 126 193 95 286 118 74 80 89 74
327 325 320 320 319 322 312 305 286 283 313 294 260 341 278 315 281 204 221 242 326 349 5 45 55 91 53 78 268 234 101 77 96 3 107 103 117 144 353 121 115 111 115 149 188
320 320 317 314 323 315 323 331 1 2 212 211 221 239 289 313 273 229 209 145 80 62 341 12 46 258 284 193 193 97 85 92 114 123 84 117 117 116 278 120 151 197 201 168 172
311 315 307 316 310 310 311 114 208 84 312 236 255 258 263 250 316 280 124 127 119 226 100 8 260 236 252 78 111 98 104 94 74 99 108 142 110 131 194 169 165 180 214 173 209
305 297 297 305 311 314 287 272 293 340 136 302 219 215 226 153 207 241 136 158 225 225 214 181 244 33 108 69 104 72 134 172 134 102 110 130 77 97 40 135 143 207 221 192 199
285 268 283 302 335 329 291 345 331 311 59 288 285 279 161 154 288 212 183 149 317 346 122 102 337 94 117 146 143 71 116 134 138 129 153 235 115 265 211 248 166 183 186 186 157
261 242 258 278 317 284 325 322 319 112 61 274 280 275 70 131 259 3 125 55 259 58 96 219 100 81 66 346 87 105 137 148 150 119 114 91 114 193 120 261 177 190 202 205 219
249 232 241 279 272 279 315 327 105 43 278 324 306 283 51 32 318 31 33 41 137 63 48 86 92 61 117 33 53 96 132 101 116 117 70 279 139 201 184 201 173 198 218 225 234
238 233 225 223 245 305 330 37 43 117 342 280 238 8 272 17 33 43 49 49 48 70 14 347 343 295 118 125 21 73 59 359 8 29 181 253 73 229 201 171 183 181 201 224 105
220 226 246 247 262 310 357 51 102 255 253 284 275 55 86 107 17 10 47 32 5 41 81 83 360 1 312 94 146 77 129 146 252 178 201 7 134 235 149 141 148 153 189 107 97
182 232 255 257 252 59 69 61 205 224 269 326 8 66 7 24 121 74 50 34 23 353 105 57 359 3 50 42 70 44 52 171 107 68 97 218 125 120 111 94 93 161 148 128 124
251 254 249 122 127 68 73 226 234 232 296 54 82 35 61 341 72 83 35 335 338 28 320 14 1 10 333 35 18 95 153 23 16 135 111 179 246 236 182 174 172 177 165 151 132
123 49 359 154 146 50 127 246 294 325 113 68 48 60 71 67 57 53 0 350 345 353 60 29 77 304 39 25 222 11 11 51 109 78 142 166 256 210 187 187 185 193 172 160 138
84 61 3 157 52 34 149 217 335 321 42 58 83 67 33 30 43 71 79 321 315 326 47 354 123 55 24 313 3 81 75 99 108 159 62 126 269 314 181 173 172 161 142 140 142
94 230 25 127 116 307 287 334 57 11 32 41 67 59 39 45 94 86 85 324 26 51 42 19 21 20 352 347 2 47 359 86 93 86 41 126 266 37 96 122 111 128 127 125 133
83 45 332 45 68 185 141 53 110 14 53 57 74 59 72 31 27 64 53 11 10 60 63 87 79 155 190 247 126 53 29 20 91 83 160 216 201 251 183 136 111 110 122 141 170
36 218 175 343 337 40 83 11 83 32 39 26 30 34 109 72 26 21 16 18 347 3 45 82 52 50 64 89 78 75 63 43 54 119 106 209 188 255 210 152 136 130 139 153 172
104 105 15 4 311 48 25 350 92 69 52 5 103 56 66 88 88 352 39 46 360 347 55 22 96 64 51 84 81 71 37 52 34 25 36 54 18 21 81 105 121 144 145 177 214
51 86 106 323 6 69 322 155 106 52 28 53 143 84 49 16 232 333 80 78 74 67 38 64 134 129 169 27 65 42 10 46 57 30 112 312 310 141 92 109 150 171 183 203 202